| time (UTC) | temp F | wind direction | speed knots | gust knots | rain 1hr in | rain 24hr in | rain mn in | humidity % | barometer mb |
| 20260505173201 | 80 | 68 | 2.6 | 7.0 | 0.00 | 0.01 | 0.01 | 82 | 1007.1 |
| 20260505172651 | 79 | 45 | 3.5 | 6.1 | 0.00 | 0.01 | 0.01 | 83 | 1007.1 |
| 20260505172142 | 79 | 68 | 3.5 | 7.8 | 0.00 | 0.01 | 0.01 | 83 | 1007.2 |
| 20260505171630 | 79 | 68 | 3.5 | 7.8 | 0.00 | 0.01 | 0.01 | 84 | 1007.2 |
| 20260505171127 | 79 | 68 | 3.5 | 7.0 | 0.00 | 0.01 | 0.01 | 82 | 1007.2 |
| 20260505165551 | 78 | 68 | 3.5 | 7.0 | 0.00 | 0.01 | 0.01 | 84 | 1007.5 |
| 20260505165039 | 78 | 68 | 2.6 | 7.0 | 0.00 | 0.01 | 0.01 | 85 | 1007.6 |
| 20260505164531 | 78 | 45 | 3.5 | 7.0 | 0.00 | 0.01 | 0.01 | 86 | 1007.7 |
| 20260505164021 | 78 | 45 | 2.6 | 7.0 | 0.01 | 0.01 | 0.01 | 87 | 1007.6 |
| 20260505163509 | 76 | 45 | 3.5 | 7.0 | 0.01 | 0.01 | 0.01 | 89 | 1007.8 |
| 20260505163001 | 76 | 68 | 4.3 | 7.8 | 0.01 | 0.01 | 0.01 | 89 | 1007.9 |
| 20260505162450 | 76 | 45 | 3.5 | 7.8 | 0.01 | 0.01 | 0.01 | 90 | 1007.7 |
| 20260505161939 | 76 | 45 | 3.5 | 7.0 | 0.01 | 0.01 | 0.01 | 92 | 1008.0 |
| 20260505161428 | 75 | 45 | 3.5 | 6.1 | 0.01 | 0.01 | 0.01 | 93 | 1007.9 |
| 20260505160410 | 74 | 68 | 1.7 | 7.8 | 0.01 | 0.01 | 0.01 | 95 | 1008.3 |
| 20260505153308 | 74 | 23 | 2.6 | 9.6 | 0.00 | 0.00 | 0.00 | 90 | 1008.7 |
| 20260505152757 | 74 | 45 | 5.2 | 9.6 | 0.00 | 0.00 | 0.00 | 89 | 1008.7 |
| 20260505152248 | 74 | 90 | 3.5 | 7.8 | 0.00 | 0.00 | 0.00 | 90 | 1008.9 |
| 20260505151742 | 74 | 68 | 3.5 | 6.1 | 0.00 | 0.00 | 0.00 | 90 | 1008.6 |
| 20260505151226 | 73 | 68 | 2.6 | 6.1 | 0.00 | 0.00 | 0.00 | 91 | 1008.9 |
| 20260505150716 | 73 | 90 | 3.5 | 6.1 | 0.00 | 0.00 | 0.00 | 91 | 1008.8 |
| 20260505150208 | 73 | 68 | 1.7 | 5.2 | 0.00 | 0.00 | 0.00 | 91 | 1009.3 |
| 20260505140516 | 71 | 68 | 2.6 | 5.2 | 0.00 | 0.00 | 0.00 | 94 | 1009.5 |
| 20260505130312 | 69 | 68 | 1.7 | 6.1 | 0.00 | 0.00 | 0.00 | 95 | 1009.4 |
| 20260505124746 | 69 | 45 | 3.5 | 7.8 | 0.00 | 0.00 | 0.00 | 95 | 1009.4 |
| 20260505124234 | 69 | 45 | 2.6 | 7.8 | 0.00 | 0.00 | 0.00 | 96 | 1009.4 |
| 20260505123213 | 69 | 68 | 3.5 | 7.8 | 0.00 | 0.00 | 0.00 | 97 | 1009.2 |
| 20260505122703 | 69 | 45 | 1.7 | 7.8 | 0.00 | 0.00 | 0.00 | 97 | 1009.1 |
| 20260505122152 | 68 | 90 | 3.5 | 6.1 | 0.00 | 0.00 | 0.00 | 98 | 1009.0 |
| 20260505121642 | 68 | 68 | 3.5 | 6.1 | 0.00 | 0.00 | 0.00 | 98 | 1009.0 |
| 20260505115601 | 67 | 45 | 3.5 | 7.0 | 0.00 | 0.00 | 0.00 | 99 | 1009.0 |
| 20260505115051 | 67 | 45 | 4.3 | 7.8 | 0.00 | 0.00 | 0.00 | 99 | 1008.8 |
| 20260505114542 | 67 | 68 | 2.6 | 7.8 | 0.00 | 0.00 | 0.00 | 99 | 1008.9 |
| 20260505114033 | 67 | 90 | 1.7 | 5.2 | 0.00 | 0.00 | 0.00 | 99 | 1008.7 |
| 20260505113520 | 66 | 45 | 3.5 | 6.1 | 0.00 | 0.00 | 0.00 | 99 | 1008.6 |
| 20260505113012 | 66 | 90 | 3.5 | 6.1 | 0.00 | 0.00 | 0.00 | 99 | 1008.7 |
| 20260505112502 | 66 | 90 | 2.6 | 6.1 | 0.00 | 0.00 | 0.00 | 99 | 1008.9 |
| 20260505111952 | 66 | 45 | 3.5 | 6.1 | 0.00 | 0.00 | 0.00 | 99 | 1008.8 |
| 20260505111442 | 66 | 68 | 2.6 | 6.1 | 0.00 | 0.00 | 0.00 | 99 | 1008.7 |
| 20260505110930 | 66 | 68 | 2.6 | 5.2 | 0.00 | 0.00 | 0.00 | 99 | 1008.8 |
| 20260505110420 | 66 | 135 | 1.7 | 6.1 | 0.00 | 0.00 | 0.00 | 99 | 1008.8 |
| 20260505101240 | 66 | 135 | 2.6 | 5.2 | 0.00 | 0.00 | 0.00 | 99 | 1008.2 |
| 20260505100728 | 66 | 135 | 2.6 | 6.1 | 0.00 | 0.00 | 0.00 | 99 | 1008.3 |
| 20260505095710 | 66 | 135 | 0.9 | 6.1 | 0.00 | 0.00 | 0.00 | 99 | 1008.1 |
| 20260505095158 | 66 | 158 | 3.5 | 6.1 | 0.00 | 0.00 | 0.00 | 99 | 1008.0 |
| 20260505093630 | 66 | 158 | 3.5 | 7.8 | 0.00 | 0.00 | 0.00 | 99 | 1007.9 |
| 20260505093117 | 66 | 135 | 3.5 | 7.8 | 0.00 | 0.00 | 0.00 | 99 | 1007.9 |
| 20260505092057 | 66 | 135 | 1.7 | 6.1 | 0.00 | 0.00 | 0.00 | 99 | 1007.9 |
| 20260505091546 | 66 | 135 | 3.5 | 6.1 | 0.00 | 0.00 | 0.00 | 99 | 1007.7 |
| 20260505091038 | 66 | 135 | 1.7 | 6.1 | 0.00 | 0.00 | 0.00 | 99 | 1008.0 |
| 20260505090525 | 66 | 135 | 2.6 | 6.1 | 0.00 | 0.00 | 0.00 | 99 | 1007.8 |
| 20260505090016 | 66 | 135 | 2.6 | 6.1 | 0.00 | 0.00 | 0.00 | 99 | 1007.7 |
| 20260505085507 | 66 | 135 | 3.5 | 6.1 | 0.00 | 0.00 | 0.00 | 99 | 1007.6 |
| 20260505084955 | 66 | 135 | 2.6 | 5.2 | 0.00 | 0.00 | 0.00 | 99 | 1007.8 |
| 20260505083936 | 66 | 135 | 1.7 | 5.2 | 0.00 | 0.00 | 0.00 | 99 | 1007.9 |
| 20260505082915 | 66 | 135 | 2.6 | 3.5 | 0.00 | 0.00 | 0.00 | 99 | 1007.9 |
| 20260505082406 | 66 | 135 | 2.6 | 5.2 | 0.00 | 0.00 | 0.00 | 99 | 1008.1 |
| 20260505081856 | 66 | 135 | 1.7 | 6.1 | 0.00 | 0.00 | 0.00 | 99 | 1008.1 |
| 20260505081345 | 66 | 135 | 3.5 | 6.1 | 0.00 | 0.00 | 0.00 | 99 | 1008.0 |
| 20260505080835 | 66 | 135 | 3.5 | 7.0 | 0.00 | 0.00 | 0.00 | 99 | 1008.2 |
| 20260505080325 | 66 | 135 | 3.5 | 7.0 | 0.00 | 0.00 | 0.00 | 99 | 1008.0 |
| 20260505074754 | 66 | 135 | 2.6 | 5.2 | 0.00 | 0.00 | 0.00 | 99 | 1007.8 |
| 20260505074257 | 66 | 135 | 2.6 | 5.2 | 0.00 | 0.00 | 0.00 | 99 | 1007.5 |
| 20260505073224 | 66 | 135 | 2.6 | 6.1 | 0.00 | 0.00 | 0.00 | 99 | 1008.0 |
| 20260505072713 | 66 | 135 | 3.5 | 5.2 | 0.00 | 0.00 | 0.00 | 99 | 1007.9 |
| 20260505072203 | 66 | 135 | 1.7 | 5.2 | 0.00 | 0.00 | 0.00 | 99 | 1008.0 |
| 20260505071653 | 66 | 135 | 3.5 | 5.2 | 0.00 | 0.00 | 0.00 | 99 | 1007.9 |
| 20260505071144 | 66 | 135 | 1.7 | 5.2 | 0.00 | 0.00 | 0.00 | 99 | 1008.2 |
| 20260505070633 | 66 | 135 | 2.6 | 5.2 | 0.00 | 0.00 | 0.00 | 99 | 1008.2 |
| 20260505070124 | 66 | 135 | 2.6 | 3.5 | 0.00 | 0.00 | 0.00 | 99 | 1008.1 |
| 20260505065612 | 66 | 135 | 1.7 | 3.5 | 0.00 | 0.00 | 0.00 | 99 | 1008.3 |
| 20260505065103 | 66 | 135 | 1.7 | 3.5 | 0.00 | 0.00 | 0.00 | 99 | 1008.2 |
| 20260505064552 | 66 | 135 | 0.9 | 3.5 | 0.00 | 0.00 | 0.00 | 99 | 1008.3 |
| 20260505064042 | 66 | 135 | 1.7 | 3.5 | 0.00 | 0.00 | 0.00 | 99 | 1008.1 |
| 20260505063022 | 66 | 135 | 1.7 | 3.5 | 0.00 | 0.00 | 0.00 | 98 | 1008.1 |
| 20260505062512 | 66 | 135 | 1.7 | 3.5 | 0.00 | 0.00 | 0.00 | 98 | 1008.4 |
| 20260505062002 | 66 | 135 | 1.7 | 5.2 | 0.00 | 0.00 | 0.00 | 98 | 1008.3 |
| 20260505060437 | 66 | 135 | 1.7 | 1.7 | 0.00 | 0.00 | 0.00 | 98 | 1008.4 |
| 20260505055723 | 66 | 135 | 0.9 | 3.5 | 0.00 | 0.00 | 0.00 | 98 | 1008.7 |
| 20260505055212 | 66 | 135 | 1.7 | 3.5 | 0.00 | 0.00 | 0.00 | 98 | 1008.6 |
| 20260505054702 | 66 | 113 | 2.6 | 3.5 | 0.00 | 0.00 | 0.00 | 98 | 1008.7 |
| 20260505054152 | 66 | 135 | 1.7 | 3.5 | 0.00 | 0.00 | 0.00 | 98 | 1008.7 |
| 20260505053641 | 66 | 135 | 1.7 | 3.5 | 0.00 | 0.00 | 0.00 | 98 | 1008.3 |
| 20260505053133 | 66 | 135 | 1.7 | 3.5 | 0.00 | 0.00 | 0.00 | 98 | 1008.6 |
| 20260505052113 | 66 | 135 | 0.0 | 3.5 | 0.00 | 0.00 | 0.00 | 98 | 1008.6 |
| 20260505051601 | 67 | 113 | 1.7 | 5.2 | 0.00 | 0.00 | 0.00 | 98 | 1008.6 |
| 20260505051053 | 67 | 135 | 1.7 | 5.2 | 0.00 | 0.00 | 0.00 | 98 | 1008.5 |
| 20260505041400 | 67 | 90 | 1.7 | 6.1 | 0.00 | 0.00 | 0.00 | 97 | 1008.2 |
| 20260505040850 | 67 | 90 | 1.7 | 6.1 | 0.00 | 0.00 | 0.00 | 97 | 1008.5 |
| 20260505040339 | 67 | 90 | 1.7 | 6.1 | 0.00 | 0.00 | 0.00 | 96 | 1008.7 |
| 20260505035830 | 67 | 68 | 1.7 | 6.1 | 0.00 | 0.00 | 0.00 | 96 | 1008.7 |
| 20260505035318 | 67 | 90 | 3.5 | 5.2 | 0.00 | 0.00 | 0.00 | 96 | 1008.6 |
| 20260505034809 | 67 | 90 | 1.7 | 5.2 | 0.00 | 0.00 | 0.00 | 96 | 1008.6 |
| 20260505034259 | 67 | 90 | 1.7 | 5.2 | 0.00 | 0.00 | 0.00 | 96 | 1008.7 |
| 20260505033753 | 67 | 90 | 1.7 | 5.2 | 0.00 | 0.00 | 0.00 | 95 | 1008.8 |
| 20260505033238 | 67 | 113 | 1.7 | 5.2 | 0.00 | 0.00 | 0.00 | 95 | 1008.7 |
| 20260505032729 | 67 | 90 | 1.7 | 5.2 | 0.00 | 0.00 | 0.00 | 95 | 1008.6 |
| 20260505032219 | 67 | 68 | 1.7 | 7.0 | 0.00 | 0.00 | 0.00 | 95 | 1008.7 |
| 20260505031708 | 67 | 68 | 1.7 | 7.0 | 0.00 | 0.00 | 0.00 | 95 | 1008.7 |
| 20260505031202 | 67 | 68 | 3.5 | 7.0 | 0.00 | 0.00 | 0.00 | 95 | 1008.7 |
| 20260505030647 | 67 | 68 | 2.6 | 6.1 | 0.00 | 0.00 | 0.00 | 95 | 1008.7 |
| 20260505030137 | 67 | 68 | 2.6 | 7.8 | 0.00 | 0.00 | 0.00 | 94 | 1008.5 |
| 20260505025628 | 67 | 68 | 4.3 | 9.6 | 0.00 | 0.00 | 0.00 | 94 | 1008.4 |
| 20260505025116 | 67 | 68 | 5.2 | 9.6 | 0.00 | 0.00 | 0.00 | 94 | 1008.4 |
| 20260505024608 | 67 | 68 | 2.6 | 5.2 | 0.00 | 0.00 | 0.00 | 94 | 1008.5 |
| 20260505024057 | 67 | 68 | 1.7 | 6.1 | 0.00 | 0.00 | 0.00 | 94 | 1008.3 |
| 20260505023547 | 67 | 68 | 1.7 | 6.1 | 0.00 | 0.00 | 0.00 | 94 | 1008.1 |
| 20260505023036 | 67 | 68 | 1.7 | 6.1 | 0.00 | 0.00 | 0.00 | 94 | 1008.2 |
| 20260505022527 | 67 | 68 | 3.5 | 7.0 | 0.00 | 0.00 | 0.00 | 94 | 1008.1 |
| 20260505022018 | 67 | 68 | 1.7 | 7.0 | 0.00 | 0.00 | 0.00 | 94 | 1008.1 |
| 20260505021508 | 67 | 45 | 3.5 | 7.8 | 0.00 | 0.00 | 0.00 | 94 | 1008.1 |
| 20260505020959 | 67 | 45 | 2.6 | 7.8 | 0.00 | 0.00 | 0.00 | 94 | 1008.1 |
| 20260505020446 | 67 | 45 | 3.5 | 7.0 | 0.00 | 0.00 | 0.00 | 94 | 1008.0 |
| 20260505015938 | 67 | 23 | 1.7 | 7.0 | 0.00 | 0.00 | 0.00 | 94 | 1008.0 |
| 20260505014916 | 67 | 45 | 3.5 | 7.8 | 0.00 | 0.00 | 0.00 | 94 | 1008.0 |
| 20260505013856 | 67 | 68 | 1.7 | 7.0 | 0.00 | 0.00 | 0.00 | 94 | 1008.0 |
| 20260505013346 | 67 | 45 | 2.6 | 7.0 | 0.00 | 0.00 | 0.00 | 94 | 1007.8 |
| 20260505012837 | 67 | 45 | 1.7 | 9.6 | 0.00 | 0.00 | 0.00 | 94 | 1008.0 |
| 20260505012324 | 67 | 45 | 3.5 | 9.6 | 0.00 | 0.00 | 0.00 | 94 | 1007.9 |
| 20260505011815 | 67 | 68 | 1.7 | 9.6 | 0.00 | 0.00 | 0.00 | 94 | 1008.0 |
| 20260505011305 | 67 | 45 | 1.7 | 9.6 | 0.00 | 0.00 | 0.00 | 94 | 1008.0 |
| 20260505010754 | 67 | 23 | 5.2 | 9.6 | 0.00 | 0.00 | 0.00 | 94 | 1007.9 |
| 20260505005735 | 67 | 23 | 2.6 | 7.0 | 0.00 | 0.00 | 0.00 | 93 | 1007.8 |
| 20260505005227 | 67 | 0 | 3.5 | 7.0 | 0.00 | 0.00 | 0.00 | 93 | 1007.8 |
| 20260505003704 | 66 | 45 | 3.5 | 6.1 | 0.00 | 0.00 | 0.00 | 93 | 1008.0 |
| 20260505002633 | 66 | 45 | 3.5 | 5.2 | 0.00 | 0.00 | 0.00 | 92 | 1008.0 |
| 20260505002123 | 66 | 45 | 2.6 | 6.1 | 0.00 | 0.00 | 0.00 | 92 | 1007.8 |
| 20260505001104 | 66 | 90 | 3.5 | 5.2 | 0.00 | 0.00 | 0.00 | 92 | 1007.6 |
| 20260505000554 | 66 | 23 | 1.7 | 6.1 | 0.00 | 0.00 | 0.00 | 92 | 1007.4 |
| 20260505000043 | 66 | 45 | 4.3 | 7.0 | 0.00 | 0.00 | 0.00 | 91 | 1007.6 |
| 20260504235533 | 66 | 45 | 2.6 | 7.0 | 0.00 | 0.00 | 0.00 | 91 | 1007.3 |
| 20260504235022 | 66 | 68 | 3.5 | 6.1 | 0.00 | 0.00 | 0.00 | 91 | 1007.2 |
| 20260504234512 | 66 | 23 | 2.6 | 6.1 | 0.00 | 0.00 | 0.00 | 90 | 1007.2 |
| 20260504234002 | 66 | 45 | 1.7 | 5.2 | 0.00 | 0.00 | 0.00 | 90 | 1007.2 |
| 20260504233457 | 66 | 68 | 2.6 | 5.2 | 0.00 | 0.00 | 0.00 | 89 | 1007.3 |
| 20260504231412 | 67 | 68 | 1.7 | 5.2 | 0.00 | 0.00 | 0.00 | 87 | 1006.9 |
| 20260504230903 | 67 | 68 | 2.6 | 6.1 | 0.00 | 0.00 | 0.00 | 87 | 1006.7 |
| 20260504230351 | 67 | 68 | 1.7 | 6.1 | 0.00 | 0.00 | 0.00 | 86 | 1006.6 |
| 20260504225841 | 67 | 68 | 1.7 | 3.5 | 0.00 | 0.00 | 0.00 | 85 | 1006.7 |
| 20260504225331 | 67 | 68 | 1.7 | 5.2 | 0.00 | 0.00 | 0.00 | 84 | 1006.8 |
| 20260504224820 | 67 | 68 | 1.7 | 5.2 | 0.00 | 0.00 | 0.00 | 83 | 1006.7 |
| 20260504224310 | 67 | 90 | 2.6 | 5.2 | 0.00 | 0.00 | 0.00 | 82 | 1006.7 |
| 20260504223252 | 67 | 90 | 1.7 | 6.1 | 0.00 | 0.00 | 0.00 | 80 | 1006.7 |
| 20260504222740 | 67 | 90 | 1.7 | 6.1 | 0.00 | 0.00 | 0.00 | 80 | 1006.4 |
| 20260504222230 | 68 | 90 | 1.7 | 5.2 | 0.00 | 0.00 | 0.00 | 79 | 1006.5 |
| 20260504221720 | 68 | 90 | 1.7 | 5.2 | 0.00 | 0.00 | 0.00 | 79 | 1006.6 |
| 20260504221211 | 68 | 90 | 1.7 | 3.5 | 0.00 | 0.00 | 0.00 | 78 | 1006.4 |
| 20260504220149 | 68 | 113 | 2.6 | 7.0 | 0.00 | 0.00 | 0.00 | 77 | 1006.2 |
| 20260504215639 | 68 | 90 | 1.7 | 7.0 | 0.00 | 0.00 | 0.00 | 76 | 1006.3 |
| 20260504215130 | 69 | 90 | 1.7 | 5.2 | 0.00 | 0.00 | 0.00 | 76 | 1006.3 |
| 20260504214620 | 69 | 90 | 1.7 | 5.2 | 0.00 | 0.00 | 0.00 | 75 | 1006.4 |
| 20260504214109 | 69 | 90 | 2.6 | 7.0 | 0.00 | 0.00 | 0.00 | 74 | 1006.3 |
| 20260504213558 | 69 | 90 | 2.6 | 7.0 | 0.00 | 0.00 | 0.00 | 73 | 1006.2 |
| 20260504213049 | 70 | 68 | 2.6 | 5.2 | 0.00 | 0.00 | 0.00 | 72 | 1006.1 |
| 20260504212028 | 70 | 90 | 2.6 | 5.2 | 0.00 | 0.00 | 0.00 | 70 | 1005.8 |
| 20260504211518 | 70 | 68 | 3.5 | 5.2 | 0.00 | 0.00 | 0.00 | 69 | 1005.8 |
| 20260504211008 | 71 | 68 | 1.7 | 5.2 | 0.00 | 0.00 | 0.00 | 68 | 1006.0 |
| 20260504210457 | 71 | 68 | 2.6 | 5.2 | 0.00 | 0.00 | 0.00 | 67 | 1006.1 |
| 20260504205950 | 71 | 68 | 2.6 | 6.1 | 0.00 | 0.00 | 0.00 | 67 | 1006.2 |
| 20260504205445 | 71 | 45 | 2.6 | 6.1 | 0.00 | 0.00 | 0.00 | 67 | 1006.4 |
| 20260504204418 | 71 | 45 | 3.5 | 5.2 | 0.00 | 0.00 | 0.00 | 66 | 1006.3 |
| 20260504203356 | 71 | 45 | 2.6 | 7.0 | 0.00 | 0.00 | 0.00 | 66 | 1006.4 |
| 20260504202847 | 71 | 45 | 4.3 | 7.0 | 0.00 | 0.00 | 0.00 | 66 | 1006.5 |
| 20260504202336 | 72 | 90 | 1.7 | 7.0 | 0.00 | 0.00 | 0.00 | 65 | 1006.3 |
| 20260504201828 | 72 | 68 | 3.5 | 7.8 | 0.00 | 0.00 | 0.00 | 65 | 1006.7 |
| 20260504201316 | 72 | 68 | 4.3 | 7.8 | 0.00 | 0.00 | 0.00 | 64 | 1006.8 |
| 20260504200256 | 72 | 23 | 4.3 | 9.6 | 0.00 | 0.00 | 0.00 | 64 | 1006.7 |
| 20260504195745 | 72 | 23 | 2.6 | 9.6 | 0.00 | 0.00 | 0.00 | 64 | 1006.8 |
| 20260504194725 | 73 | 68 | 5.2 | 9.6 | 0.00 | 0.00 | 0.00 | 64 | 1007.0 |
| 20260504194216 | 73 | 90 | 5.2 | 9.6 | 0.00 | 0.00 | 0.00 | 64 | 1006.8 |
| 20260504193155 | 74 | 90 | 2.6 | 9.6 | 0.00 | 0.00 | 0.00 | 61 | 1006.9 |
| 20260504192645 | 74 | 45 | 3.5 | 7.8 | 0.00 | 0.00 | 0.00 | 60 | 1006.8 |
| 20260504191626 | 73 | 90 | 4.3 | 7.8 | 0.00 | 0.00 | 0.00 | 60 | 1006.8 |
| 20260504191119 | 73 | 113 | 5.2 | 7.8 | 0.00 | 0.00 | 0.00 | 61 | 1007.2 |
| 20260504190606 | 73 | 113 | 5.2 | 7.8 | 0.00 | 0.00 | 0.00 | 61 | 1007.1 |
| 20260504190054 | 74 | 113 | 3.5 | 7.8 | 0.00 | 0.00 | 0.00 | 61 | 1007.2 |
| 20260504185037 | 73 | 113 | 4.3 | 9.6 | 0.00 | 0.00 | 0.00 | 62 | 1006.9 |
| 20260504184015 | 73 | 113 | 3.5 | 7.0 | 0.00 | 0.00 | 0.00 | 62 | 1007.1 |
| 20260504183503 | 73 | 90 | 3.5 | 7.8 | 0.00 | 0.00 | 0.00 | 62 | 1007.0 |
| 20260504182953 | 73 | 45 | 3.5 | 7.8 | 0.00 | 0.00 | 0.00 | 61 | 1007.1 |
| 20260504182447 | 72 | 45 | 3.5 | 7.0 | 0.00 | 0.00 | 0.00 | 63 | 1006.9 |
| 20260504181933 | 73 | 90 | 2.6 | 7.0 | 0.00 | 0.00 | 0.00 | 62 | 1007.3 |
| 20260504181424 | 73 | 68 | 3.5 | 7.0 | 0.00 | 0.00 | 0.00 | 62 | 1007.6 |
| 20260504180913 | 73 | 68 | 3.5 | 9.6 | 0.00 | 0.00 | 0.00 | 62 | 1007.4 |
| 20260504180402 | 72 | 90 | 4.3 | 9.6 | 0.00 | 0.00 | 0.00 | 62 | 1007.4 |
| 20260504175854 | 73 | 113 | 2.6 | 9.6 | 0.00 | 0.00 | 0.00 | 63 | 1007.7 |
| 20260504174832 | 72 | 113 | 2.6 | 7.8 | 0.00 | 0.00 | 0.00 | 64 | 1007.8 |
| 20260504174324 | 71 | 90 | 3.5 | 7.8 | 0.00 | 0.00 | 0.00 | 65 | 1008.0 |
| 20260504173812 | 71 | 68 | 5.2 | 11.3 | 0.00 | 0.00 | 0.00 | 65 | 1008.0 |